This is the latest recevied weather packets stored in our database for station/object DL1GHN-6. If no packets are shown the sender has not sent any weather packets the latest 10 day(s).
| Time | Temp. | Humidity | Pressure | Rain* | Wind** | Luminosity | Snow |
|---|---|---|---|---|---|---|---|
| 1777488033 | 18.33° C | 33% | 1019.5 hPa | 0 mm | - | 0 W/m² | - |
| 1777487734 | 18.33° C | 33% | 1019.5 hPa | 0 mm | - | 0 W/m² | - |
| 1777487433 | 18.33° C | 33% | 1019.4 hPa | 0 mm | - | 5 W/m² | - |
| 1777487133 | 18.89° C | 33% | 1019.3 hPa | 0 mm | - | 7 W/m² | - |
| 1777486832 | 18.89° C | 33% | 1019.3 hPa | 0 mm | - | 9 W/m² | - |
| 1777486533 | 18.89° C | 33% | 1019.1 hPa | 0 mm | - | 11 W/m² | - |
| 1777486233 | 19.44° C | 33% | 1019.1 hPa | 0 mm | - | 12 W/m² | - |
| 1777485933 | 19.44° C | 32% | 1019.1 hPa | 0 mm | - | 14 W/m² | - |
| 1777485633 | 19.44° C | 33% | 1019 hPa | 0 mm | - | 14 W/m² | - |
| 1777485332 | 20° C | 31% | 1018.9 hPa | 0 mm | - | 16 W/m² | - |
| 1777485033 | 20° C | 31% | 1018.8 hPa | 0 mm | - | 18 W/m² | - |
| 1777484732 | 20° C | 32% | 1018.8 hPa | 0 mm | - | 19 W/m² | - |
| 1777484433 | 20° C | 32% | 1018.7 hPa | 0 mm | - | 19 W/m² | - |
| 1777484133 | 20.56° C | 32% | 1018.7 hPa | 0 mm | - | 21 W/m² | - |
| 1777483833 | 20.56° C | 30% | 1018.6 hPa | 0 mm | - | 21 W/m² | - |
| 1777483533 | 20.56° C | 29% | 1018.6 hPa | 0 mm | - | 23 W/m² | - |
| 1777483232 | 20.56° C | 29% | 1018.6 hPa | 0 mm | - | 23 W/m² | - |
| 1777482934 | 21.11° C | 29% | 1018.5 hPa | 0 mm | - | 25 W/m² | - |
| 1777482633 | 21.11° C | 29% | 1018.6 hPa | 0 mm | - | 25 W/m² | - |
| 1777482333 | 21.11° C | 31% | 1018.4 hPa | 0 mm | - | 26 W/m² | - |
| 1777482033 | 21.11° C | 31% | 1018.5 hPa | 0 mm | - | 28 W/m² | - |
| 1777481734 | 21.67° C | 28% | 1018.5 hPa | 0 mm | - | 28 W/m² | - |
| 1777481433 | 21.67° C | 29% | 1018.4 hPa | 0 mm | - | 30 W/m² | - |
| 1777481133 | 21.67° C | 29% | 1018.4 hPa | 0 mm | - | 32 W/m² | - |
| 1777480832 | 21.67° C | 28% | 1018.4 hPa | 0 mm | - | 33 W/m² | - |
* Rain latest hour (hover to see other rain measurements)
** Current wind speed in m/s (hover to see current wind gust speed)